This is the latest recevied weather packets stored in our database for station/object DL3GCR-10. If no packets are shown the sender has not sent any weather packets the latest 10 day(s).
| Time | Temp. | Humidity | Pressure | Rain* | Wind** | Luminosity | Snow |
|---|---|---|---|---|---|---|---|
| 1777374418 | 22.78° C | 27% | 1017.6 hPa | - | - | - | - |
| 1777373518 | 23.33° C | 30% | 1017.7 hPa | - | - | - | - |
| 1777372617 | 22.78° C | 31% | 1017.8 hPa | - | - | - | - |
| 1777371724 | 22.22° C | 34% | 1017.9 hPa | - | - | - | - |
| 1777370824 | 21.11° C | 36% | 1018 hPa | - | - | - | - |
| 1777369924 | 20.56° C | 38% | 1018.1 hPa | - | - | - | - |
| 1777369024 | 19.44° C | 41% | 1018.2 hPa | - | - | - | - |
| 1777368123 | 18.33° C | 42% | 1018.2 hPa | - | - | - | - |
| 1777367223 | 17.22° C | 41% | 1018.3 hPa | - | - | - | - |
| 1777366323 | 16.67° C | 44% | 1018.2 hPa | - | - | - | - |
| 1777365423 | 16.11° C | 45% | 1018.2 hPa | - | - | - | - |
| 1777364523 | 15° C | 46% | 1018.3 hPa | - | - | - | - |
| 1777363623 | 14.44° C | 47% | 1018.3 hPa | - | - | - | - |
| 1777362722 | 13.89° C | 48% | 1018.3 hPa | - | - | - | - |
| 1777361822 | 13.33° C | 52% | 1018.3 hPa | - | - | - | - |
| 1777360922 | 13.33° C | 54% | 1018.4 hPa | - | - | - | - |
| 1777360022 | 12.22° C | 55% | 1018.3 hPa | - | - | - | - |
| 1777359122 | 12.22° C | 54% | 1018.2 hPa | - | - | - | - |
| 1777358222 | 12.22° C | 57% | 1018.3 hPa | - | - | - | - |
| 1777357321 | 11.11° C | 58% | 1018.3 hPa | - | - | - | - |
| 1777356421 | 10° C | 60% | 1018.3 hPa | - | - | - | - |
| 1777355521 | 10° C | 62% | 1018.2 hPa | - | - | - | - |
| 1777354621 | 9.44° C | 60% | 1018.2 hPa | - | - | - | - |
| 1777353721 | 8.33° C | 63% | 1018.3 hPa | - | - | - | - |
| 1777352820 | 8.33° C | 64% | 1018.3 hPa | - | - | - | - |
* Rain since midnight (hover to see other rain measurements)
** Current wind speed in m/s (hover to see current wind gust speed)